Time,TemperatureF,DewpointF,PressureIn,WindDirection,WindDirectionDegrees,WindSpeedMPH,WindSpeedGustMPH,Humidity,HourlyPrecipIn,Conditions,Clouds,dailyrainin,SolarRadiationWatts/m^2,SoftwareType,DateUTC
2013-03-19 00:02:00,17.0,12.0,-100.00,West,281,6.0,17.0,82,0.00,,,0.00,0.000000,,2013-03-19 05:02:00,
2013-03-19 00:32:00,17.0,12.0,-100.00,West,281,6.0,17.0,82,0.00,,,0.00,0.000000,,2013-03-19 05:32:00,
2013-03-19 00:43:00,17.0,12.0,-100.00,West,281,6.0,17.0,82,0.00,,,0.00,0.000000,,2013-03-19 05:43:00,
2013-03-19 00:52:00,17.0,12.0,-100.00,West,281,6.0,17.0,82,0.00,,,0.00,0.000000,,2013-03-19 05:52:00,
2013-03-19 01:02:00,16.0,11.0,-100.00,WNW,292,7.0,17.0,82,0.00,,,0.00,0.000000,,2013-03-19 06:02:00,
2013-03-19 01:22:00,16.0,11.0,-100.00,WNW,292,7.0,17.0,82,0.00,,,0.00,0.000000,,2013-03-19 06:22:00,
2013-03-19 01:32:00,16.0,11.0,-100.00,WNW,292,7.0,17.0,82,0.00,,,0.00,0.000000,,2013-03-19 06:32:00,
2013-03-19 01:42:00,16.0,11.0,-100.00,WNW,292,7.0,17.0,82,0.00,,,0.00,0.000000,,2013-03-19 06:42:00,
2013-03-19 01:52:00,16.0,11.0,-100.00,WNW,292,7.0,17.0,82,0.00,,,0.00,0.000000,,2013-03-19 06:52:00,
2013-03-19 02:02:00,14.0,9.0,-100.00,WNW,289,7.0,19.0,80,0.00,,,0.00,0.000000,,2013-03-19 07:02:00,
2013-03-19 02:32:00,14.0,9.0,-100.00,WNW,289,7.0,19.0,80,0.00,,,0.00,0.000000,,2013-03-19 07:32:00,
2013-03-19 02:42:00,14.0,9.0,-100.00,WNW,289,7.0,19.0,80,0.00,,,0.00,0.000000,,2013-03-19 07:42:00,
2013-03-19 02:52:00,14.0,9.0,-100.00,WNW,289,7.0,19.0,80,0.00,,,0.00,0.000000,,2013-03-19 07:52:00,
2013-03-19 03:02:00,12.0,7.0,-100.00,WNW,297,7.0,19.0,79,0.00,,,0.00,0.000000,,2013-03-19 08:02:00,
2013-03-19 03:33:00,12.0,7.0,-100.00,WNW,297,7.0,19.0,79,0.00,,,0.00,0.000000,,2013-03-19 08:33:00,
2013-03-19 03:43:00,12.0,7.0,-100.00,WNW,297,7.0,19.0,79,0.00,,,0.00,0.000000,,2013-03-19 08:43:00,
2013-03-19 03:52:00,12.0,7.0,-100.00,WNW,297,7.0,19.0,79,0.00,,,0.00,0.000000,,2013-03-19 08:52:00,
2013-03-19 04:02:00,11.0,6.0,-100.00,WNW,292,7.0,23.0,78,0.00,,,0.00,0.000000,,2013-03-19 09:02:00,
2013-03-19 04:23:00,11.0,6.0,-100.00,WNW,292,7.0,23.0,78,0.00,,,0.00,0.000000,,2013-03-19 09:23:00,
2013-03-19 04:33:00,11.0,6.0,-100.00,WNW,292,7.0,23.0,78,0.00,,,0.00,0.000000,,2013-03-19 09:33:00,
2013-03-19 04:43:00,11.0,6.0,-100.00,WNW,292,7.0,23.0,78,0.00,,,0.00,0.000000,,2013-03-19 09:43:00,
2013-03-19 04:53:00,11.0,6.0,-100.00,WNW,292,7.0,23.0,78,0.00,,,0.00,0.000000,,2013-03-19 09:53:00,
2013-03-19 05:02:00,11.0,6.0,-100.00,WNW,300,8.0,18.0,78,0.00,,,0.00,0.000000,,2013-03-19 10:02:00,
2013-03-19 05:33:00,11.0,6.0,-100.00,WNW,300,8.0,18.0,78,0.00,,,0.00,0.000000,,2013-03-19 10:33:00,
2013-03-19 05:42:00,11.0,6.0,-100.00,WNW,300,8.0,18.0,78,0.00,,,0.00,0.000000,,2013-03-19 10:42:00,
2013-03-19 05:53:00,11.0,6.0,-100.00,WNW,300,8.0,18.0,78,0.00,,,0.00,0.000000,,2013-03-19 10:53:00,
2013-03-19 06:02:00,10.0,4.0,-100.00,WNW,303,9.0,19.0,77,0.00,,,0.00,0.000000,,2013-03-19 11:02:00,
2013-03-19 06:33:00,10.0,4.0,-100.00,WNW,303,9.0,19.0,77,0.00,,,0.00,0.000000,,2013-03-19 11:33:00,
2013-03-19 06:43:00,10.0,4.0,-100.00,WNW,303,9.0,19.0,77,0.00,,,0.00,0.000000,,2013-03-19 11:43:00,
2013-03-19 06:52:00,10.0,4.0,-100.00,WNW,303,9.0,19.0,77,0.00,,,0.00,0.000000,,2013-03-19 11:52:00,
2013-03-19 07:02:00,9.0,3.0,-100.00,WNW,301,9.0,21.0,76,0.00,,,0.00,0.000000,,2013-03-19 12:02:00,
2013-03-19 07:23:00,9.0,3.0,-100.00,WNW,301,9.0,21.0,76,0.00,,,0.00,0.000000,,2013-03-19 12:23:00,
2013-03-19 07:33:00,9.0,3.0,-100.00,WNW,301,9.0,21.0,76,0.00,,,0.00,0.000000,,2013-03-19 12:33:00,
2013-03-19 07:43:00,9.0,3.0,-100.00,WNW,301,9.0,21.0,76,0.00,,,0.00,0.000000,,2013-03-19 12:43:00,
2013-03-19 07:52:00,9.0,3.0,-100.00,WNW,301,9.0,21.0,76,0.00,,,0.00,0.000000,,2013-03-19 12:52:00,
2013-03-19 08:02:00,10.0,4.0,-100.00,WNW,294,8.0,20.0,76,0.00,,,0.00,32.000000,,2013-03-19 13:02:00,
2013-03-19 08:33:00,10.0,4.0,-100.00,WNW,294,8.0,20.0,76,0.00,,,0.00,32.000000,,2013-03-19 13:33:00,
2013-03-19 08:42:00,10.0,4.0,-100.00,WNW,294,8.0,20.0,76,0.00,,,0.00,32.000000,,2013-03-19 13:42:00,
2013-03-19 08:53:00,10.0,4.0,-100.00,WNW,294,8.0,20.0,76,0.00,,,0.00,32.000000,,2013-03-19 13:53:00,
2013-03-19 09:02:00,12.0,4.0,-100.00,WNW,302,9.0,20.0,70,0.00,,,0.00,184.000000,,2013-03-19 14:02:00,
2013-03-19 09:33:00,12.0,4.0,-100.00,WNW,302,9.0,20.0,70,0.00,,,0.00,184.000000,,2013-03-19 14:33:00,
2013-03-19 09:42:00,12.0,4.0,-100.00,WNW,302,9.0,20.0,70,0.00,,,0.00,184.000000,,2013-03-19 14:42:00,
2013-03-19 09:52:00,12.0,4.0,-100.00,WNW,302,9.0,20.0,70,0.00,,,0.00,184.000000,,2013-03-19 14:52:00,
2013-03-19 10:02:00,14.0,4.0,-100.00,WNW,295,10.0,20.0,63,0.00,,,0.00,358.000000,,2013-03-19 15:02:00,
2013-03-19 10:34:00,14.0,4.0,-100.00,WNW,295,10.0,20.0,63,0.00,,,0.00,358.000000,,2013-03-19 15:34:00,
2013-03-19 10:44:00,14.0,4.0,-100.00,WNW,295,10.0,20.0,63,0.00,,,0.00,358.000000,,2013-03-19 15:44:00,
2013-03-19 10:53:00,14.0,4.0,-100.00,WNW,295,10.0,20.0,63,0.00,,,0.00,358.000000,,2013-03-19 15:53:00,
2013-03-19 11:02:00,17.0,4.0,-100.00,NW,304,11.0,23.0,57,0.00,,,0.00,580.000000,,2013-03-19 16:02:00,
2013-03-19 11:34:00,17.0,4.0,-100.00,NW,304,11.0,23.0,57,0.00,,,0.00,580.000000,,2013-03-19 16:34:00,
2013-03-19 11:44:00,17.0,4.0,-100.00,NW,304,11.0,23.0,57,0.00,,,0.00,580.000000,,2013-03-19 16:44:00,
2013-03-19 11:54:00,17.0,4.0,-100.00,NW,304,11.0,23.0,57,0.00,,,0.00,580.000000,,2013-03-19 16:54:00,
2013-03-19 12:02:00,21.0,5.0,-100.00,WNW,300,9.0,21.0,50,0.01,,,0.01,783.000000,,2013-03-19 17:02:00,
2013-03-19 12:34:00,21.0,5.0,-100.00,WNW,300,9.0,21.0,50,0.01,,,0.01,783.000000,,2013-03-19 17:34:00,
2013-03-19 12:44:00,21.0,5.0,-100.00,WNW,300,9.0,21.0,50,0.01,,,0.01,783.000000,,2013-03-19 17:44:00,
2013-03-19 12:53:00,21.0,5.0,-100.00,WNW,300,9.0,21.0,50,0.01,,,0.01,783.000000,,2013-03-19 17:53:00,
2013-03-19 13:02:00,23.0,3.0,-100.00,WNW,295,11.0,26.0,41,0.00,,,0.01,845.000000,,2013-03-19 18:02:00,
2013-03-19 13:34:00,23.0,3.0,-100.00,WNW,295,11.0,26.0,41,0.00,,,0.01,845.000000,,2013-03-19 18:34:00,
2013-03-19 13:44:00,23.0,3.0,-100.00,WNW,295,11.0,26.0,41,0.00,,,0.01,845.000000,,2013-03-19 18:44:00,
2013-03-19 13:53:00,23.0,3.0,-100.00,WNW,295,11.0,26.0,41,0.00,,,0.01,845.000000,,2013-03-19 18:53:00,
2013-03-19 14:02:00,25.0,1.0,-100.00,NW,305,12.0,31.0,35,0.01,,,0.02,882.000000,,2013-03-19 19:02:00,
2013-03-19 14:33:00,25.0,1.0,-100.00,NW,305,12.0,31.0,35,0.01,,,0.02,882.000000,,2013-03-19 19:33:00,
2013-03-19 14:43:00,25.0,1.0,-100.00,NW,305,12.0,31.0,35,0.01,,,0.02,882.000000,,2013-03-19 19:43:00,
2013-03-19 14:53:00,25.0,1.0,-100.00,NW,305,12.0,31.0,35,0.01,,,0.02,882.000000,,2013-03-19 19:53:00,
2013-03-19 15:02:00,26.0,1.0,-100.00,WNW,294,11.0,27.0,33,0.01,,,-99.99,829.000000,,2013-03-19 20:02:00,
2013-03-19 15:33:00,26.0,1.0,-100.00,WNW,294,11.0,27.0,33,0.01,,,-99.99,829.000000,,2013-03-19 20:33:00,
2013-03-19 15:43:00,26.0,1.0,-100.00,WNW,294,11.0,27.0,33,0.01,,,-99.99,829.000000,,2013-03-19 20:43:00,
2013-03-19 15:53:00,26.0,1.0,-100.00,WNW,294,11.0,27.0,33,0.01,,,-99.99,829.000000,,2013-03-19 20:53:00,
2013-03-19 16:02:00,27.0,0.0,-100.00,WNW,303,10.0,29.0,30,0.00,,,0.03,699.000000,,2013-03-19 21:02:00,
2013-03-19 16:34:00,27.0,0.0,-100.00,WNW,303,10.0,29.0,30,0.00,,,0.03,699.000000,,2013-03-19 21:34:00,
2013-03-19 16:43:00,27.0,0.0,-100.00,WNW,303,10.0,29.0,30,0.00,,,0.03,699.000000,,2013-03-19 21:43:00,
2013-03-19 16:53:00,27.0,0.0,-100.00,WNW,303,10.0,29.0,30,0.00,,,0.03,699.000000,,2013-03-19 21:53:00,
2013-03-19 17:02:00,25.0,-2.0,-100.00,WNW,302,11.0,22.0,30,0.00,,,0.03,532.000000,,2013-03-19 22:02:00,
2013-03-19 17:34:00,25.0,-2.0,-100.00,WNW,302,11.0,22.0,30,0.00,,,0.03,532.000000,,2013-03-19 22:34:00,
2013-03-19 17:44:00,25.0,-2.0,-100.00,WNW,302,11.0,22.0,30,0.00,,,0.03,532.000000,,2013-03-19 22:44:00,
2013-03-19 17:53:00,25.0,-2.0,-100.00,WNW,302,11.0,22.0,30,0.00,,,0.03,532.000000,,2013-03-19 22:53:00,
2013-03-19 18:02:00,24.0,-2.0,-100.00,NW,313,10.0,25.0,32,0.00,,,0.03,329.000000,,2013-03-19 23:02:00,
2013-03-19 18:22:00,24.0,-2.0,-100.00,NW,313,10.0,25.0,32,0.00,,,0.03,329.000000,,2013-03-19 23:22:00,
2013-03-19 18:33:00,24.0,-2.0,-100.00,NW,313,10.0,25.0,32,0.00,,,0.03,329.000000,,2013-03-19 23:33:00,
2013-03-19 18:43:00,24.0,-2.0,-100.00,NW,313,10.0,25.0,32,0.00,,,0.03,329.000000,,2013-03-19 23:43:00,
2013-03-19 18:52:00,24.0,-2.0,-100.00,NW,313,10.0,25.0,32,0.00,,,0.03,329.000000,,2013-03-19 23:52:00,
2013-03-19 19:02:00,20.0,-2.0,-100.00,NW,308,9.0,19.0,37,0.00,,,0.03,58.000000,,2013-03-20 00:02:00,
2013-03-19 19:33:00,20.0,-2.0,-100.00,NW,308,9.0,19.0,37,0.00,,,0.03,58.000000,,2013-03-20 00:33:00,
2013-03-19 19:42:00,20.0,-2.0,-100.00,NW,308,9.0,19.0,37,0.00,,,0.03,58.000000,,2013-03-20 00:42:00,
2013-03-19 19:52:00,20.0,-2.0,-100.00,NW,308,9.0,19.0,37,0.00,,,0.03,58.000000,,2013-03-20 00:52:00,
2013-03-19 20:02:00,17.0,-2.0,-100.00,WNW,300,6.0,23.0,42,0.00,,,0.03,3.000000,,2013-03-20 01:02:00,
2013-03-19 20:23:00,17.0,-2.0,-100.00,WNW,300,6.0,23.0,42,0.00,,,0.03,3.000000,,2013-03-20 01:23:00,
2013-03-19 20:32:00,17.0,-2.0,-100.00,WNW,300,6.0,23.0,42,0.00,,,0.03,3.000000,,2013-03-20 01:32:00,
2013-03-19 20:43:00,17.0,-2.0,-100.00,WNW,300,6.0,23.0,42,0.00,,,0.03,3.000000,,2013-03-20 01:43:00,
2013-03-19 20:53:00,17.0,-2.0,-100.00,WNW,300,6.0,23.0,42,0.00,,,0.03,3.000000,,2013-03-20 01:53:00,
2013-03-19 21:02:00,16.0,-2.0,-100.00,WNW,297,8.0,19.0,44,0.00,,,0.03,0.000000,,2013-03-20 02:02:00,
2013-03-19 21:23:00,16.0,-2.0,-100.00,WNW,297,8.0,19.0,44,0.00,,,0.03,0.000000,,2013-03-20 02:23:00,
2013-03-19 21:32:00,16.0,-2.0,-100.00,WNW,297,8.0,19.0,44,0.00,,,0.03,0.000000,,2013-03-20 02:32:00,
2013-03-19 21:43:00,16.0,-2.0,-100.00,WNW,297,8.0,19.0,44,0.00,,,0.03,0.000000,,2013-03-20 02:43:00,
2013-03-19 21:53:00,16.0,-2.0,-100.00,WNW,297,8.0,19.0,44,0.00,,,0.03,0.000000,,2013-03-20 02:53:00,
2013-03-19 22:02:00,14.0,-2.0,-100.00,WNW,299,7.0,23.0,47,0.00,,,0.03,0.000000,,2013-03-20 03:02:00,
2013-03-19 22:34:00,14.0,-2.0,-100.00,WNW,299,7.0,23.0,47,0.00,,,0.03,0.000000,,2013-03-20 03:34:00,
2013-03-19 22:43:00,14.0,-2.0,-100.00,WNW,299,7.0,23.0,47,0.00,,,0.03,0.000000,,2013-03-20 03:43:00,
2013-03-19 22:53:00,14.0,-2.0,-100.00,WNW,299,7.0,23.0,47,0.00,,,0.03,0.000000,,2013-03-20 03:53:00,
2013-03-19 23:02:00,12.0,-3.0,-100.00,NW,307,7.0,17.0,49,0.00,,,0.03,0.000000,,2013-03-20 04:02:00,
2013-03-19 23:23:00,12.0,-3.0,-100.00,NW,307,7.0,17.0,49,0.00,,,0.03,0.000000,,2013-03-20 04:23:00,
2013-03-19 23:32:00,12.0,-3.0,-100.00,NW,307,7.0,17.0,49,0.00,,,0.03,0.000000,,2013-03-20 04:32:00,
2013-03-19 23:43:00,12.0,-3.0,-100.00,NW,307,7.0,17.0,49,0.00,,,0.03,0.000000,,2013-03-20 04:43:00,
2013-03-19 23:53:00,12.0,-3.0,-100.00,NW,307,7.0,17.0,49,0.00,,,0.03,0.000000,,2013-03-20 04:53:00,